When you browse on this site, cookies collect data to enhance your experience and personalize the content and advertising you see.
Visit our Privacy Policy to learn more. By continuing to use the site, you agree to this use of cookies and data.
  • In Österreich
  • Länderverzeichnis
  • Für 7 Tage
  • Wassertemperatur
  • Wetterkarte
  • News
  • Widgets
  • user-avatar
    Anmelden

    Stündliche Wetter Ordino

    Heute, 12 Dezember, Donnerstag

    Zeit Temperatur Niederschläge Wind Luftdruck Luftfeuchtigkeit
    00:00 -3°C° 0.9 mm 2 m/S 628 mmHg 94%
    01:00 -3°C° 0.9 mm 2 m/S 628 mmHg 95%
    02:00 -3°C° 0.9 mm 2 m/S 628 mmHg 95%
    03:00 -3°C° 0.9 mm 2 m/S 628 mmHg 96%
    04:00 -3°C° 0.6 mm 2 m/S 628 mmHg 96%
    05:00 -3°C° 0.6 mm 2 m/S 627 mmHg 96%
    06:00 -1°C° 0.6 mm 1 m/S 627 mmHg 95%
    07:00 0°C° 0.5 mm 1 m/S 628 mmHg 93%
    08:00 0°C° 0.5 mm 1 m/S 628 mmHg 90%
    09:00 +1°C° 0.5 mm 1 m/S 628 mmHg 88%
    10:00 +2°C° 0.1 mm 1 m/S 628 mmHg 85%
    11:00 +3°C° 0.1 mm 1 m/S 627 mmHg 82%
    12:00 +3°C° 0.1 mm 1 m/S 627 mmHg 79%
    13:00 +3°C° 0.1 mm 1 m/S 626 mmHg 82%
    14:00 +3°C° 0.1 mm 1 m/S 625 mmHg 86%
    15:00 +2°C° 0.1 mm 1 m/S 625 mmHg 89%
    16:00 +1°C° 0.3 mm 2 m/S 624 mmHg 91%
    17:00 -1°C° 0.3 mm 2 m/S 623 mmHg 93%
    18:00 -1°C° 0.3 mm 2 m/S 622 mmHg 95%
    19:00 -1°C° 1.6 mm 2 m/S 621 mmHg 96%
    20:00 -1°C° 1.6 mm 2 m/S 621 mmHg 96%
    21:00 -1°C° 1.6 mm 2 m/S 621 mmHg 97%
    22:00 -1°C° 2.5 mm 2 m/S 621 mmHg 97%
    23:00 +1°C° 2.5 mm 2 m/S 621 mmHg 98%

    Morgen, 13 Dezember, Freitag

    Zeit Temperatur Niederschläge Wind Luftdruck Luftfeuchtigkeit
    00:00 +1°C° 2.5 mm 2 m/S 621 mmHg 98%
    01:00 +1°C° 1.2 mm 2 m/S 620 mmHg 98%
    02:00 +1°C° 1.2 mm 2 m/S 620 mmHg 97%
    03:00 +1°C° 1.2 mm 2 m/S 619 mmHg 97%
    04:00 +1°C° 1.8 mm 2 m/S 619 mmHg 98%
    05:00 +1°C° 1.8 mm 2 m/S 619 mmHg 98%
    06:00 +2°C° 1.8 mm 2 m/S 619 mmHg 98%
    07:00 +2°C° 2.4 mm 2 m/S 620 mmHg 98%
    08:00 +2°C° 2.4 mm 2 m/S 620 mmHg 98%
    09:00 +2°C° 2.4 mm 2 m/S 620 mmHg 98%
    10:00 +2°C° 3.7 mm 2 m/S 621 mmHg 98%
    11:00 +2°C° 3.7 mm 2 m/S 621 mmHg 98%
    12:00 +2°C° 3.7 mm 2 m/S 621 mmHg 98%
    13:00 +1°C° 1.8 mm 3 m/S 621 mmHg 98%
    14:00 +2°C° 1.8 mm 3 m/S 621 mmHg 98%
    15:00 +2°C° 1.8 mm 3 m/S 621 mmHg 98%
    16:00 +1°C° 3.7 mm 3 m/S 622 mmHg 98%
    17:00 +2°C° 3.7 mm 2 m/S 623 mmHg 98%
    18:00 +2°C° 3.7 mm 2 m/S 623 mmHg 99%
    19:00 +2°C° 2.7 mm 2 m/S 624 mmHg 99%
    20:00 +3°C° 2.7 mm 2 m/S 624 mmHg 99%
    21:00 +3°C° 2.7 mm 2 m/S 625 mmHg 99%
    22:00 +3°C° 1 mm 2 m/S 625 mmHg 99%
    23:00 +3°C° 1 mm 2 m/S 626 mmHg 98%

    übermorgen, 14 Dezember, Samstag

    Zeit Temperatur Niederschläge Wind Luftdruck Luftfeuchtigkeit
    00:00 +2°C° 1 mm 3 m/S 626 mmHg 98%
    01:00 +2°C° 0 mm 3 m/S 626 mmHg 98%
    02:00 +3°C° 0 mm 2 m/S 626 mmHg 98%
    03:00 +2°C° 0 mm 2 m/S 626 mmHg 98%
    04:00 +2°C° 0 mm 2 m/S 627 mmHg 97%
    05:00 +2°C° 0 mm 2 m/S 627 mmHg 96%
    06:00 +2°C° 0 mm 2 m/S 627 mmHg 95%
    07:00 +2°C° 0 mm 2 m/S 628 mmHg 94%
    08:00 +2°C° 0 mm 2 m/S 628 mmHg 93%
    09:00 +2°C° 0 mm 2 m/S 629 mmHg 93%
    10:00 +4°C° 0 mm 1 m/S 629 mmHg 92%
    11:00 +5°C° 0 mm 1 m/S 629 mmHg 92%
    12:00 +5°C° 0 mm 1 m/S 629 mmHg 92%
    13:00 +5°C° 0 mm 1 m/S 629 mmHg 93%
    14:00 +4°C° 0 mm 0 m/S 629 mmHg 94%
    15:00 +4°C° 0 mm 0 m/S 629 mmHg 95%
    16:00 +3°C° 0 mm 0 m/S 629 mmHg 94%
    17:00 +2°C° 0 mm 1 m/S 628 mmHg 93%
    18:00 +1°C° 0 mm 1 m/S 628 mmHg 92%
    19:00 +1°C° 0 mm 1 m/S 628 mmHg 90%
    20:00 +1°C° 0 mm 1 m/S 628 mmHg 89%
    21:00 0°C° 0 mm 1 m/S 628 mmHg 88%
    22:00 0°C° 0 mm 1 m/S 628 mmHg 87%
    23:00 0°C° 0 mm 1 m/S 628 mmHg 87%

    15 Dezember, Sonntag

    Zeit Temperatur Niederschläge Wind Luftdruck Luftfeuchtigkeit
    00:00 0°C° 0 mm 1 m/S 628 mmHg 86%
    01:00 0°C° 0 mm 1 m/S 628 mmHg 84%
    02:00 0°C° 0 mm 1 m/S 628 mmHg 82%
    03:00 0°C° 0 mm 1 m/S 628 mmHg 80%
    04:00 -2°C° 0 mm 2 m/S 628 mmHg 78%
    05:00 -2°C° 0 mm 2 m/S 628 mmHg 75%
    06:00 -2°C° 0 mm 2 m/S 628 mmHg 72%
    07:00 +1°C° 0 mm 2 m/S 629 mmHg 76%
    08:00 +3°C° 0 mm 1 m/S 630 mmHg 80%
    09:00 +4°C° 0 mm 1 m/S 630 mmHg 84%
    10:00 +5°C° 0 mm 1 m/S 630 mmHg 85%
    11:00 +5°C° 0 mm 1 m/S 630 mmHg 86%
    12:00 +6°C° 0 mm 1 m/S 630 mmHg 86%
    13:00 +5°C° 0 mm 2 m/S 630 mmHg 87%
    14:00 +4°C° 0 mm 2 m/S 630 mmHg 88%
    15:00 +4°C° 0 mm 2 m/S 629 mmHg 89%
    16:00 +3°C° 0 mm 2 m/S 629 mmHg 89%
    17:00 +2°C° 0 mm 2 m/S 629 mmHg 89%
    18:00 +1°C° 0 mm 2 m/S 629 mmHg 89%
    19:00 +1°C° 0 mm 2 m/S 629 mmHg 88%
    20:00 +1°C° 0 mm 2 m/S 628 mmHg 87%
    21:00 +1°C° 0 mm 2 m/S 628 mmHg 85%
    22:00 +1°C° 0 mm 2 m/S 628 mmHg 85%
    23:00 +1°C° 0 mm 2 m/S 628 mmHg 84%

    16 Dezember, Montag

    Zeit Temperatur Niederschläge Wind Luftdruck Luftfeuchtigkeit
    00:00 +1°C° 0 mm 2 m/S 627 mmHg 83%
    01:00 -1°C° 0 mm 2 m/S 627 mmHg 81%
    02:00 -1°C° 0 mm 2 m/S 627 mmHg 79%
    03:00 -1°C° 0 mm 2 m/S 627 mmHg 78%
    04:00 -1°C° 0 mm 2 m/S 626 mmHg 76%
    05:00 -1°C° 0 mm 2 m/S 626 mmHg 75%
    06:00 -1°C° 0 mm 2 m/S 626 mmHg 73%
    07:00 +1°C° 0 mm 2 m/S 626 mmHg 74%
    08:00 +1°C° 0 mm 3 m/S 626 mmHg 76%
    09:00 +2°C° 0 mm 3 m/S 627 mmHg 77%
    10:00 +2°C° 0 mm 3 m/S 627 mmHg 79%
    11:00 +3°C° 0 mm 3 m/S 626 mmHg 81%
    12:00 +4°C° 0 mm 3 m/S 626 mmHg 82%
    13:00 +4°C° 0 mm 3 m/S 626 mmHg 83%
    14:00 +3°C° 0 mm 3 m/S 625 mmHg 83%
    15:00 +3°C° 0 mm 3 m/S 625 mmHg 84%
    16:00 +2°C° 0 mm 3 m/S 625 mmHg 85%
    17:00 +2°C° 0 mm 3 m/S 624 mmHg 86%
    18:00 +1°C° 0 mm 3 m/S 624 mmHg 87%
    19:00 +1°C° 0 mm 3 m/S 624 mmHg 88%
    20:00 +1°C° 0 mm 3 m/S 624 mmHg 89%
    21:00 +1°C° 0 mm 3 m/S 624 mmHg 90%
    22:00 +1°C° 0 mm 3 m/S 624 mmHg 89%
    23:00 +2°C° 0 mm 2 m/S 624 mmHg 88%

    17 Dezember, Dienstag

    Zeit Temperatur Niederschläge Wind Luftdruck Luftfeuchtigkeit
    00:00 +2°C° 0 mm 2 m/S 624 mmHg 86%
    01:00 +1°C° 0 mm 2 m/S 624 mmHg 86%
    02:00 +2°C° 0 mm 1 m/S 624 mmHg 86%
    03:00 +1°C° 0 mm 1 m/S 624 mmHg 85%
    04:00 +1°C° 0 mm 1 m/S 624 mmHg 86%
    05:00 +1°C° 0 mm 1 m/S 624 mmHg 86%
    06:00 0°C° 0 mm 1 m/S 624 mmHg 87%
    07:00 0°C° 0 mm 0 m/S 625 mmHg 87%
    08:00 +1°C° 0 mm 0 m/S 626 mmHg 87%
    09:00 +2°C° 0 mm 0 m/S 627 mmHg 87%
    10:00 +3°C° 0.1 mm 0 m/S 628 mmHg 88%
    11:00 +4°C° 0.1 mm 1 m/S 628 mmHg 89%
    12:00 +5°C° 0.1 mm 1 m/S 629 mmHg 89%
    13:00 +5°C° 0.1 mm 1 m/S 629 mmHg 91%
    14:00 +4°C° 0.1 mm 1 m/S 629 mmHg 92%
    15:00 +3°C° 0.1 mm 0 m/S 629 mmHg 93%
    16:00 +3°C° 0 mm 1 m/S 629 mmHg 94%
    17:00 +2°C° 0 mm 1 m/S 629 mmHg 94%
    18:00 +1°C° 0 mm 1 m/S 630 mmHg 94%
    19:00 +1°C° 0 mm 1 m/S 630 mmHg 94%
    20:00 +1°C° 0 mm 1 m/S 631 mmHg 93%
    21:00 +1°C° 0 mm 1 m/S 631 mmHg 93%
    22:00 +1°C° 0 mm 1 m/S 631 mmHg 92%
    23:00 +1°C° 0 mm 1 m/S 632 mmHg 91%
    Mehr zeigen